Regional Weather Roundup
Issued by NWS

Home | Current Version | Previous Version | Text Only | Print | Product List | Glossary Off
Versions: 1 2 3 4 5 6 7 8 9 10 11 12 13 14 15 16 17 18 19 20 21 22 23 24 25 26 27 28 29 30 31 32 33 34 35 36 37 38 39 40 41 42 43 44 45 46 47 48 49 50

000
ASUS45 KTFX 260204
RWRMT
MONTANA HOURLY WEATHER ROUNDUP
NATIONAL WEATHER SERVICE GREAT FALLS MT
704 PM MST TUE NOV 25 2014

NOTE: "FAIR" INDICATES FEW OR NO CLOUDS BELOW 12000 FEET WITH NO
SIGNIFICANT WEATHER AND/OR OBSTRUCTIONS TO VISIBILITY.

* THESE STATIONS ARE NOT UNDER NWS QUALITY CONTROL. THEY DO NOT
   REPORT WEATHER SUCH AS PRECIPITATION OR FOG.

MTZ001>007-043-260300-
WEST OF THE DIVIDE
CITY           SKY/WX    TMP DP  RH WIND       PRES   REMARKS
KALISPELL      FOG       30  30 100 CALM      30.11S VSB M1/4
MISSOULA       N/A       34  34 100 W5        30.18S WCI  29
BUTTE          LGT SNOW  28  28 100 W3        30.10S VSB 1
MULLAN PASS    LGT SNOW  27  23  85 SE5       30.07F VSB 1 1/4 WCI  21
* ESSEX        N/A       31  30  96 N/A        N/A
* LINCOLN      N/A       30  29  96 S5         N/A   WCI  25
* LOOKOUT PASS N/A       29  29 100 S3         N/A
* POLSON       N/A       32  29  89 S1         N/A
* RONAN APT    CLOUDY    36  30  79 SE6        N/A   WCI  31
* SEELEY LAKE  N/A       31  29  92 N/A        N/A
* THOMP F APT  CLOUDY    33  31  92 N/A        N/A
* YAAK HILL    N/A       34  32  92 E1         N/A
$$

MTZ008-052>055-260300-
SOUTHWEST MONTANA
CITY           SKY/WX    TMP DP  RH WIND       PRES   REMARKS
BOZEMAN        LGT SNOW  32  30  92 CALM      30.13R VSB 1 1/4
DILLON         LGT SNOW  34  30  85 NE12      30.07S WCI  25
* W YELLOWSTON PTCLDY    31  30  96 SW4G10     N/A
* ENNIS APT    CLOUDY    30  30 100 N8         N/A   WCI  22
* THREE FORKS  CLOUDY    34 -15  11 N/A        N/A
* BOULDER HILL N/A       27  24  88 N8         N/A   WCI  19
* MONIDA PASS  N/A       29  29 100 SE3        N/A
* RAYNOLDS PAS N/A       34  25  70 W3         N/A
* WHITEHALL    N/A       32  31  96 SE4        N/A
* WISE RIVER   N/A       31  30  96 SE7        N/A   WCI  24
$$

MTZ009>010-012-014-046-048-049-054-260300-
EAST SLOPES AND CENTRAL MONTANA
CITY           SKY/WX    TMP DP  RH WIND       PRES   REMARKS
CUT BANK       CLOUDY    30  21  69 CALM      30.11S
GREAT FALLS    CLOUDY    30  27  89 S7        30.12F WCI  23
HELENA         FOG       34  32  92 SE3       30.13F
* DEARBORN     N/A       33  24  70 S1         N/A
* EAST GLACIER N/A       24  19  81 E3         N/A
* MONARCH      N/A       23  19  85 SW6        N/A   WCI  16
* PENDROY      N/A       28  21  75 SE3        N/A
* ROGERS PASS  N/A       28  26  92 S2         N/A
* SAINT MARY   N/A       28  19  69 SE2        N/A
* SWEET GRASS  N/A       27  25  92 W7         N/A   WCI  19
$$

MTZ011-013-016-021-035-040-045-047-050-051-260300-
NORTH CENTRAL MONTANA
CITY           SKY/WX    TMP DP  RH WIND       PRES   REMARKS
HAVRE          CLOUDY    28  23  81 E5        30.14R WCI  22
LEWISTOWN      CLOUDY    28  25  89 W14       30.10R WCI  17
* N BAR RANCH  CLOUDY    28  21  75 NW14G21   30.08R WCI  17
* CHESTER      N/A       31  23  72 NW9G15     N/A   WCI  23
* DENTON       N/A       31  24  75 W9         N/A   WCI  23
* GEYSER       N/A       28  22  78 W14        N/A   WCI  17
* JUDITH GAP   N/A       28  18  66 NW16G22    N/A   WCI  16
* LOMA         N/A       34  24  67 SW6        N/A   WCI  29
$$

MTZ017>020-022>027-061-062-260300-
NORTHEAST MONTANA
CITY           SKY/WX    TMP DP  RH WIND       PRES   REMARKS
GLASGOW        CLOUDY    25  18  75 N13       30.11R WCI  13
GLENDIVE       CLOUDY    27  21  78 N20G29    30.04R WCI  13
JORDAN         CLOUDY    28  25  89 N12       30.09R WCI  18
SIDNEY         CLOUDY    25  19  78 N14       30.08R WCI  13
WOLF POINT     CLOUDY    27  19  72 N13       30.13R WCI  16
* BEAVER HILL  N/A       25  22  88 NW26G32    N/A   WCI   9
* CIRCLE       N/A       27  23  85 N6G14      N/A   WCI  20
* LINDSAY DVD  N/A       23  22  96 NW20G26    N/A   WCI   8
* NAVAJO       N/A       19  16  88 VRB12G17    N/A   WCI   6
* SACO         N/A       25  19  78 NW12G17    N/A   WCI  14
$$

MTZ028>042-056>058-260300-
SOUTHCENTRAL AND SOUTHEAST MONTANA
CITY           SKY/WX    TMP DP  RH WIND       PRES   REMARKS
BAKER          CLOUDY    28  25  89 N25G33    29.95R WCI  13
BILLINGS       CLOUDY    34  21  59 NW14      30.11R WCI  24
LIVINGSTON     LGT SNOW  30  28  92 SW5       30.12R VSB 1 1/4 WCI  25
MILES CITY     CLOUDY    32  25  75 N16G26    30.04R WCI  21
* LAUREL APT   CLOUDY    34  19  54 W10G17     N/A   WCI  26
* ALZADA       N/A       32  23  69 W19G27     N/A   WCI  20
* HYSHAM       N/A       32  18  56 NW6G12     N/A   WCI  26
* REED POINT   N/A       30  26  85 SW5        N/A   WCI  25
* ROSCOE HILL  N/A       24  21  88 NW4G11     N/A
$$

REGIONAL REPORTS...DAKOTAS
CITY           SKY/WX    TMP DP  RH WIND       PRES   REMARKS
WILLISTON      CLOUDY    19  16  88 N9        30.06R WCI   8
DICKINSON      CLOUDY    27  23  85 N23G31    29.89R WCI  13
BEACH          CLOUDY    23  23 100 N23G33    29.98R WCI   7
CROSBY         CLOUDY    16  14  92 NE9       30.09R WCI   5
BISMARCK       CLOUDY    32  30  92 N17G25    29.78R WCI  21
GRAND FORKS    LGT SNOW  18  14  84 N14       30.03R VSB 2 1/2 WCI   4
FARGO          CLOUDY    25  18  75 NE8       29.95R WCI  16
BUFFALO SD     PTCLDY    34  27  76 NW35G46   29.80R WCI  19
RAPID CITY     CLOUDY    36  25  64 NW24      29.88R WCI  24
$$

REGIONAL REPORTS...WYOMING/IDAHO/WASHINGTON
CITY           SKY/WX    TMP DP  RH WIND       PRES   REMARKS
GILLETTE       CLOUDY    28  25  89 NW25G35   29.99R WCI  13
SHERIDAN       CLOUDY    30  23  75 NW25G36   30.07R WCI  16
CODY           CLOUDY    27  23  85 N12       30.10R VSB 3    WCI  16
YELLOWSTONE LA MOCLDY    30  27  89 VRB5      30.05R WCI  25
SALMON         CLOUDY    34  32  92 CALM      30.12S VSB 2
MULLAN PASS    LGT SNOW  27  23  85 SE5       30.07S VSB 1 1/4 WCI  21
SAND POINT     LGT RAIN  36  36 100 SW3       30.19S
SPOKANE        LGT RAIN  34  34 100 N3        30.19S VSB 1
$$

REGIONAL REPORTS...ALBERTA
CITY           SKY/WX    TMP DP  RH WIND       PRES   REMARKS
EDMONTON       LGT SNOW  18  12  77 N5        30.16R WCI  11

$$




USA.gov is the U.S. government's official web portal to all federal, state and local government web resources and services.